• In Hungary
  • List of Countries
  • For 7 days
  • Water Temperature
  • Satellite Maps
  • Weather Map
  • News
  • Weather Widgets
  • user-avatar
    Login

    Hourly Weather Krutogorka

    Today, 25 May, Friday

    Time Temperature Precipitation Wind Pressure Humidity
    00:00 +14°C° 0 mm 2 mps 747 mmHg 90%
    01:00 +13°C° 0 mm 2 mps 748 mmHg 91%
    02:00 +13°C° 0 mm 2 mps 748 mmHg 93%
    03:00 +13°C° 0 mm 2 mps 748 mmHg 93%
    04:00 +12°C° 0 mm 3 mps 748 mmHg 92%
    05:00 +13°C° 0 mm 3 mps 749 mmHg 91%
    06:00 +14°C° 0 mm 3 mps 749 mmHg 86%
    07:00 +17°C° 0 mm 4 mps 749 mmHg 80%
    08:00 +19°C° 0 mm 4 mps 750 mmHg 73%
    09:00 +20°C° 0 mm 4 mps 750 mmHg 69%
    10:00 +21°C° 0 mm 4 mps 750 mmHg 64%
    11:00 +22°C° 0 mm 4 mps 750 mmHg 60%
    12:00 +22°C° 0 mm 4 mps 750 mmHg 58%
    13:00 +22°C° 0 mm 5 mps 750 mmHg 56%
    14:00 +22°C° 0 mm 5 mps 751 mmHg 54%
    15:00 +21°C° 0 mm 4 mps 751 mmHg 55%
    16:00 +21°C° 0 mm 4 mps 751 mmHg 56%
    17:00 +20°C° 0 mm 4 mps 751 mmHg 57%
    18:00 +18°C° 0 mm 4 mps 751 mmHg 61%
    19:00 +16°C° 0 mm 3 mps 752 mmHg 65%
    20:00 +13°C° 0 mm 3 mps 752 mmHg 69%
    21:00 +12°C° 0 mm 3 mps 752 mmHg 71%
    22:00 +11°C° 0 mm 3 mps 753 mmHg 73%
    23:00 +10°C° 0 mm 3 mps 753 mmHg 75%

    Tomorrow, 26 May, Saturday

    Time Temperature Precipitation Wind Pressure Humidity
    00:00 +10°C° 0 mm 3 mps 754 mmHg 77%
    01:00 +9°C° 0 mm 2 mps 754 mmHg 79%
    02:00 +8°C° 0 mm 2 mps 755 mmHg 81%
    03:00 +8°C° 0 mm 2 mps 755 mmHg 80%
    04:00 +8°C° 0 mm 3 mps 755 mmHg 79%
    05:00 +9°C° 0 mm 3 mps 756 mmHg 78%
    06:00 +10°C° 0 mm 3 mps 756 mmHg 72%
    07:00 +12°C° 0 mm 3 mps 756 mmHg 65%
    08:00 +14°C° 0 mm 3 mps 757 mmHg 58%
    09:00 +16°C° 0 mm 3 mps 757 mmHg 54%
    10:00 +17°C° 0 mm 3 mps 757 mmHg 51%
    11:00 +18°C° 0 mm 3 mps 757 mmHg 47%
    12:00 +19°C° 0 mm 3 mps 757 mmHg 46%
    13:00 +19°C° 0 mm 3 mps 757 mmHg 46%
    14:00 +20°C° 0 mm 3 mps 757 mmHg 45%
    15:00 +19°C° 0 mm 3 mps 756 mmHg 48%
    16:00 +19°C° 0 mm 3 mps 756 mmHg 51%
    17:00 +19°C° 0 mm 3 mps 756 mmHg 53%
    18:00 +17°C° 0 mm 3 mps 756 mmHg 60%
    19:00 +15°C° 0 mm 2 mps 756 mmHg 66%
    20:00 +13°C° 0 mm 2 mps 756 mmHg 72%
    21:00 +12°C° 0 mm 2 mps 756 mmHg 75%
    22:00 +10°C° 0 mm 2 mps 756 mmHg 77%
    23:00 +9°C° 0 mm 2 mps 757 mmHg 80%

    Day after tomorrow, 27 May, Sunday

    Time Temperature Precipitation Wind Pressure Humidity
    00:00 +9°C° 0 mm 2 mps 757 mmHg 82%
    01:00 +9°C° 0 mm 1 mps 757 mmHg 84%
    02:00 +8°C° 0 mm 1 mps 757 mmHg 86%
    03:00 +9°C° 0 mm 1 mps 757 mmHg 85%
    04:00 +9°C° 0 mm 1 mps 757 mmHg 84%
    05:00 +9°C° 0 mm 1 mps 756 mmHg 84%
    06:00 +11°C° 0 mm 1 mps 756 mmHg 76%
    07:00 +13°C° 0 mm 1 mps 756 mmHg 69%
    08:00 +15°C° 0 mm 2 mps 756 mmHg 62%
    09:00 +18°C° 0 mm 1 mps 756 mmHg 57%
    10:00 +19°C° 0 mm 1 mps 756 mmHg 52%
    11:00 +20°C° 0 mm 1 mps 755 mmHg 48%
    12:00 +21°C° 0 mm 1 mps 755 mmHg 47%
    13:00 +20°C° 0 mm 2 mps 754 mmHg 46%
    14:00 +21°C° 0 mm 2 mps 754 mmHg 45%
    15:00 +21°C° 0 mm 2 mps 754 mmHg 48%
    16:00 +20°C° 0 mm 2 mps 753 mmHg 51%
    17:00 +20°C° 0 mm 2 mps 753 mmHg 54%
    18:00 +18°C° 0 mm 2 mps 753 mmHg 62%
    19:00 +16°C° 0 mm 2 mps 752 mmHg 69%
    20:00 +14°C° 0 mm 2 mps 752 mmHg 77%
    21:00 +14°C° 0 mm 2 mps 752 mmHg 79%
    22:00 +13°C° 0 mm 2 mps 753 mmHg 82%
    23:00 +12°C° 0 mm 2 mps 753 mmHg 84%

    28 May, Monday

    Time Temperature Precipitation Wind Pressure Humidity
    00:00 +12°C° 0 mm 2 mps 753 mmHg 85%
    01:00 +12°C° 0 mm 2 mps 753 mmHg 86%
    02:00 +12°C° 0 mm 2 mps 753 mmHg 86%
    03:00 +12°C° 0 mm 2 mps 753 mmHg 87%
    04:00 +12°C° 0 mm 2 mps 753 mmHg 87%
    05:00 +12°C° 0 mm 2 mps 753 mmHg 88%
    06:00 +14°C° 0 mm 2 mps 754 mmHg 81%
    07:00 +16°C° 0 mm 2 mps 754 mmHg 75%
    08:00 +18°C° 0 mm 2 mps 754 mmHg 69%
    09:00 +20°C° 0 mm 2 mps 754 mmHg 63%
    10:00 +21°C° 0 mm 2 mps 754 mmHg 58%
    11:00 +22°C° 0 mm 3 mps 755 mmHg 52%
    12:00 +22°C° 0 mm 3 mps 755 mmHg 50%
    13:00 +24°C° 0 mm 3 mps 754 mmHg 48%
    14:00 +24°C° 0 mm 3 mps 754 mmHg 46%
    15:00 +24°C° 0 mm 2 mps 754 mmHg 49%
    16:00 +23°C° 0 mm 2 mps 754 mmHg 51%
    17:00 +23°C° 0 mm 2 mps 754 mmHg 54%
    18:00 +20°C° 0 mm 2 mps 754 mmHg 60%
    19:00 +18°C° 0 mm 2 mps 754 mmHg 66%
    20:00 +15°C° 0 mm 2 mps 754 mmHg 71%
    21:00 +14°C° 0 mm 2 mps 755 mmHg 72%
    22:00 +13°C° 0 mm 2 mps 755 mmHg 73%
    23:00 +12°C° 0 mm 2 mps 755 mmHg 74%

    29 May, Tuesday

    Time Temperature Precipitation Wind Pressure Humidity
    00:00 +10°C° 0 mm 2 mps 755 mmHg 75%
    01:00 +10°C° 0 mm 2 mps 756 mmHg 77%
    02:00 +10°C° 0 mm 1 mps 756 mmHg 78%
    03:00 +11°C° 0 mm 1 mps 756 mmHg 79%
    04:00 +11°C° 0 mm 1 mps 756 mmHg 80%
    05:00 +11°C° 0 mm 1 mps 756 mmHg 81%
    06:00 +14°C° 0 mm 1 mps 756 mmHg 74%
    07:00 +16°C° 0 mm 1 mps 755 mmHg 68%
    08:00 +19°C° 0 mm 1 mps 755 mmHg 61%
    09:00 +20°C° 0 mm 1 mps 755 mmHg 57%
    10:00 +22°C° 0 mm 1 mps 755 mmHg 54%
    11:00 +23°C° 0 mm 1 mps 755 mmHg 50%
    12:00 +24°C° 0 mm 1 mps 754 mmHg 49%
    13:00 +24°C° 0 mm 1 mps 754 mmHg 47%
    14:00 +25°C° 0 mm 1 mps 753 mmHg 46%
    15:00 +24°C° 0 mm 1 mps 753 mmHg 49%
    16:00 +24°C° 0 mm 2 mps 752 mmHg 53%
    17:00 +24°C° 0 mm 2 mps 752 mmHg 56%
    18:00 +21°C° 0 mm 2 mps 751 mmHg 63%
    19:00 +19°C° 0 mm 2 mps 751 mmHg 70%
    20:00 +17°C° 0 mm 2 mps 751 mmHg 77%
    21:00 +16°C° 0 mm 2 mps 751 mmHg 79%
    22:00 +15°C° 0 mm 2 mps 751 mmHg 82%
    23:00 +15°C° 0 mm 2 mps 750 mmHg 85%

    30 May, Wednesday

    Time Temperature Precipitation Wind Pressure Humidity
    00:00 +14°C° 0 mm 2 mps 750 mmHg 85%
    01:00 +14°C° 0 mm 2 mps 750 mmHg 85%
    02:00 +13°C° 0 mm 2 mps 750 mmHg 85%
    03:00 +14°C° 0 mm 2 mps 750 mmHg 83%
    04:00 +14°C° 0 mm 2 mps 749 mmHg 82%
    05:00 +14°C° 0 mm 2 mps 749 mmHg 80%
    06:00 +16°C° 0 mm 3 mps 749 mmHg 76%
    07:00 +18°C° 0 mm 3 mps 749 mmHg 72%
    08:00 +19°C° 0 mm 3 mps 748 mmHg 68%
    09:00 +21°C° 0 mm 3 mps 748 mmHg 64%
    10:00 +22°C° 0 mm 3 mps 747 mmHg 61%
    11:00 +25°C° 0 mm 3 mps 747 mmHg 57%
    12:00 +25°C° 0 mm 4 mps 747 mmHg 56%
    13:00 +26°C° 0 mm 4 mps 746 mmHg 55%
    14:00 +26°C° 0 mm 4 mps 746 mmHg 55%
    15:00 +26°C° 0 mm 4 mps 745 mmHg 58%
    16:00 +25°C° 0 mm 4 mps 745 mmHg 61%
    17:00 +25°C° 0 mm 3 mps 744 mmHg 64%
    18:00 +22°C° 0 mm 3 mps 744 mmHg 71%
    19:00 +21°C° 0 mm 3 mps 744 mmHg 78%
    20:00 +19°C° 0 mm 2 mps 744 mmHg 85%
    21:00 +18°C° 0 mm 2 mps 744 mmHg 87%
    22:00 +17°C° 0 mm 2 mps 744 mmHg 89%
    23:00 +17°C° 0 mm 2 mps 743 mmHg 90%
    Show more